Date String (YYYY-MM-DD hh:mm:ss) UTC,Instrument flags,absolute air pressure of the measurement (hPa),sample flow rate (lpm),inlet stack bypass flow (lpm),air temperature of the measurement (°C),ambient temperature measured by the external sensor (°C),aerosol sample conditioner tube jacket temperature (°C),OPC LED temperature (°C),internal box temperature (°C),relative humidity of the measurement (%),span deviation,mass concentration of particles derived from Lorenz-Mie calculation of OPC scattering (μg/m³),mass concentration of particles derived from Lorenz-Mie calculation of OPC scattering (μg/m³),mass concentration of particles derived from Lorenz-Mie calculation of OPC scattering (μg/m³)
DateTimeUTC,F1_M11,P_M11,Q1_M11,Q2_M11,T1_M11,T2_M11,T3_M11,T4_M11,T5_M11,U1_M11,ZSPAN_M11,X0_M11,X2_M11,X1_M11
2024-03-08 04:00:00,SystemResetWarning,0826.1,5.00,000.00,018.9,018.7,000.0,027.3,020.8,23.4,0002.1,0010.48,0005.71,0005.42
2024-03-08 04:01:00,SystemResetWarning,0826.1,5.00,000.00,018.9,018.6,000.0,027.3,020.7,23.4,0002.0,0010.53,0005.84,0005.54
2024-03-08 04:02:00,SystemResetWarning,0826.1,5.00,000.00,018.9,018.4,000.0,027.3,020.6,23.4,0001.7,0010.22,0005.97,0005.65
2024-03-08 04:03:00,SystemResetWarning,0826.2,5.01,000.00,018.8,018.3,000.0,027.3,020.6,23.4,0001.6,0010.16,0006.05,0005.73
2024-03-08 04:04:00,SystemResetWarning,0826.2,5.01,000.00,018.8,018.1,000.0,027.3,020.5,23.4,0000.0,0010.36,0006.15,0005.80
2024-03-08 04:05:00,SystemResetWarning,0826.2,5.00,000.00,018.8,018.0,000.0,027.3,020.5,23.5,0000.0,0010.49,0006.21,0005.84
2024-03-08 04:06:00,SystemResetWarning,0826.2,4.99,000.00,018.7,018.0,000.0,027.3,020.4,23.4,0000.3,0010.18,0006.25,0005.86
2024-03-08 04:07:00,SystemResetWarning,0826.2,4.99,000.00,018.7,017.9,000.0,027.3,020.4,23.4,0000.1,0009.88,0006.24,0005.88
2024-03-08 04:08:00,SystemResetWarning,0826.2,5.00,000.00,018.7,017.8,000.0,027.2,020.3,23.5,0000.0,0009.74,0006.25,0005.88
2024-03-08 04:09:00,SystemResetWarning,0826.2,5.01,000.00,018.7,017.8,000.0,027.2,020.3,23.5,0000.0,0009.76,0006.31,0005.89
2024-03-08 04:10:00,SystemResetWarning,0826.2,5.00,000.00,018.6,017.7,000.0,027.2,020.3,23.6,-000.0,0009.70,0006.30,0005.89
2024-03-08 04:11:00,SystemResetWarning,0826.2,5.00,000.00,018.6,017.7,000.0,027.2,020.3,23.6,-000.6,0009.62,0006.27,0005.87
2024-03-08 04:12:00,SystemResetWarning,0826.2,5.00,000.00,018.6,017.7,000.0,027.2,020.2,23.6,-000.8,0009.58,0006.25,0005.85
2024-03-08 04:13:00,SystemResetWarning,0826.2,4.99,000.00,018.6,017.6,000.0,027.2,020.2,23.6,-001.0,0009.42,0006.20,0005.82
2024-03-08 04:14:00,SystemResetWarning,0826.2,5.00,000.00,018.5,017.6,000.0,027.2,020.2,23.6,-000.9,0009.33,0006.15,0005.80
2024-03-08 04:15:00,SystemResetWarning,0826.2,5.00,000.00,018.5,017.6,000.0,027.2,020.2,23.6,-000.6,0009.13,0006.09,0005.76
2024-03-08 04:16:00,SystemResetWarning,0826.2,5.00,000.00,018.5,017.5,000.0,027.1,020.2,23.7,0000.3,0009.00,0006.05,0005.74
2024-03-08 04:17:00,SystemResetWarning,0826.2,4.99,000.00,018.5,017.5,000.0,027.1,020.1,23.7,0000.8,0008.85,0006.01,0005.73
2024-03-08 04:18:00,SystemResetWarning,0826.2,5.00,000.00,018.4,017.5,000.0,027.1,020.1,23.7,0000.9,0008.83,0006.01,0005.72
2024-03-08 04:19:00,SystemResetWarning,0826.3,5.00,000.00,018.4,017.5,000.0,027.1,020.1,23.7,0001.0,0008.67,0005.97,0005.71
2024-03-08 04:20:00,SystemResetWarning,0826.2,5.01,000.00,018.5,017.9,000.0,027.2,020.4,23.7,0001.5,0008.53,0005.90,0005.68
2024-03-08 04:21:00,SystemResetWarning,0826.4,5.00,000.00,018.7,018.8,000.0,027.3,020.9,23.4,0001.8,0008.31,0005.89,0005.67
2024-03-08 04:22:00,SystemResetWarning,0826.4,5.00,000.00,018.9,019.0,000.0,027.3,021.1,23.2,0001.7,0008.33,0005.89,0005.67
2024-03-08 04:23:00,SystemResetWarning,0826.4,4.98,000.00,018.9,018.9,000.0,027.3,021.0,23.1,0001.7,0008.33,0005.88,0005.66
2024-03-08 04:24:00,SystemResetWarning,0826.4,5.00,000.00,018.9,018.7,000.0,027.3,020.8,23.1,0002.4,0008.21,0005.86,0005.66
2024-03-08 04:25:00,SystemResetWarning,0826.4,5.01,000.00,018.9,018.6,000.0,027.3,020.7,23.1,0002.5,0008.24,0005.88,0005.67
2024-03-08 04:26:00,SystemResetWarning,0826.4,5.00,000.00,018.9,018.4,000.0,027.3,020.7,23.2,0002.4,0008.24,0005.89,0005.67
2024-03-08 04:27:00,SystemResetWarning,0826.4,5.00,000.00,018.9,018.3,000.0,027.3,020.6,23.2,0002.2,0008.22,0005.89,0005.68
2024-03-08 04:28:00,SystemResetWarning,0826.4,5.00,000.00,018.8,018.2,000.0,027.3,020.6,23.2,0001.9,0008.24,0005.89,0005.68
2024-03-08 04:29:00,SystemResetWarning,0826.4,5.00,000.00,018.8,018.1,000.0,027.3,020.5,23.3,0002.3,0008.68,0005.91,0005.68
2024-03-08 04:30:00,SystemResetWarning,0826.4,5.00,000.00,018.8,018.0,000.0,027.3,020.5,23.3,0001.9,0008.99,0005.93,0005.71
2024-03-08 04:31:00,SystemResetWarning,0826.4,5.00,000.00,018.8,018.0,000.0,027.3,020.4,23.4,0002.0,0009.27,0005.96,0005.73
2024-03-08 04:32:00,SystemResetWarning,0826.4,5.00,000.00,018.7,017.9,000.0,027.3,020.4,23.4,0001.9,0009.27,0005.98,0005.75
2024-03-08 04:33:00,SystemResetWarning,0826.4,5.00,000.00,018.7,017.9,000.0,027.3,020.4,23.4,0001.8,0009.26,0005.99,0005.76
2024-03-08 04:34:00,SystemResetWarning,0826.4,5.00,000.00,018.7,017.8,000.0,027.2,020.3,23.4,0001.7,0009.22,0006.03,0005.80
2024-03-08 04:35:00,SystemResetWarning,0826.4,5.00,000.00,018.6,017.8,000.0,027.2,020.3,23.5,0001.5,0009.31,0006.07,0005.83
2024-03-08 04:36:00,SystemResetWarning,0826.4,5.00,000.00,018.6,017.7,000.0,027.2,020.3,23.5,0001.0,0009.32,0006.09,0005.86
2024-03-08 04:37:00,SystemResetWarning,0826.4,5.00,000.00,018.6,017.7,000.0,027.2,020.3,23.5,0001.3,0009.35,0006.12,0005.89
2024-03-08 04:38:00,SystemResetWarning,0826.4,4.99,000.00,018.6,017.7,000.0,027.2,020.2,23.5,0001.8,0009.43,0006.17,0005.92
2024-03-08 04:39:00,SystemResetWarning,0826.4,5.00,000.00,018.5,017.6,000.0,027.2,020.2,23.5,0001.8,0009.49,0006.20,0005.95
2024-03-08 04:40:00,SystemResetWarning,0826.4,5.01,000.00,018.5,017.6,000.0,027.2,020.2,23.5,0001.4,0009.05,0006.23,0005.99
2024-03-08 04:41:00,SystemResetWarning,0826.4,5.01,000.00,018.5,017.6,000.0,027.2,020.2,23.6,0001.3,0009.43,0006.26,0006.02
2024-03-08 04:42:00,SystemResetWarning,0826.4,5.01,000.00,018.5,017.5,000.0,027.1,020.1,23.6,0001.0,0009.44,0006.27,0006.04
2024-03-08 04:43:00,SystemResetWarning,0826.4,4.99,000.00,018.4,017.5,000.0,027.1,020.1,23.6,0001.5,0009.40,0006.28,0006.06
2024-03-08 04:44:00,SystemResetWarning,0826.4,5.00,000.00,018.4,017.5,000.0,027.1,020.1,23.7,0001.4,0009.33,0006.28,0006.08
2024-03-08 04:45:00,SystemResetWarning,0826.4,5.00,000.00,018.5,017.9,000.0,027.2,020.3,23.6,0002.0,0009.32,0006.30,0006.10
2024-03-08 04:46:00,SystemResetWarning,0826.5,5.02,000.00,018.7,018.7,000.0,027.3,020.8,23.4,0002.0,0009.26,0006.29,0006.10
2024-03-08 04:47:00,SystemResetWarning,0826.5,5.00,000.00,018.8,019.0,000.0,027.3,021.0,23.1,0002.3,0009.25,0006.29,0006.12
2024-03-08 04:48:00,SystemResetWarning,0826.5,4.99,000.00,018.9,018.9,000.0,027.3,020.9,23.1,0001.7,0009.29,0006.32,0006.15
2024-03-08 04:49:00,SystemResetWarning,0826.4,4.99,000.00,018.9,018.7,000.0,027.3,020.8,23.1,0001.1,0009.27,0006.33,0006.17
2024-03-08 04:50:00,SystemResetWarning,0826.5,5.02,000.00,018.9,018.5,000.0,027.3,020.7,23.0,0000.1,0009.22,0006.32,0006.16
2024-03-08 04:51:00,SystemResetWarning,0826.4,5.00,000.00,018.8,018.4,000.0,027.2,020.6,23.0,0000.6,0009.43,0006.28,0006.13
2024-03-08 04:52:00,SystemResetWarning,0826.4,5.00,000.00,018.8,018.3,000.0,027.2,020.5,23.0,0000.8,0008.98,0006.23,0006.09
2024-03-08 04:53:00,SystemResetWarning,0826.5,4.98,000.00,018.8,018.1,000.0,027.2,020.5,23.0,0000.7,0008.58,0006.19,0006.05
2024-03-08 04:54:00,SystemResetWarning,0826.5,5.01,000.00,018.8,018.0,000.0,027.2,020.4,23.1,0000.3,0008.61,0006.18,0006.02
2024-03-08 04:55:00,SystemResetWarning,0826.4,5.01,000.00,018.7,017.9,000.0,027.2,020.4,23.1,0000.0,0008.60,0006.14,0005.98
2024-03-08 04:56:00,SystemResetWarning,0826.5,5.00,000.00,018.7,017.9,000.0,027.2,020.3,23.2,0000.0,0008.55,0006.07,0005.92
2024-03-08 04:57:00,SystemResetWarning,0826.5,4.99,000.00,018.7,017.8,000.0,027.2,020.3,23.2,0000.0,0008.61,0006.03,0005.87
2024-03-08 04:58:00,SystemResetWarning,0826.5,5.00,000.00,018.6,017.7,000.0,027.2,020.3,23.2,0000.0,0008.53,0005.97,0005.81
2024-03-08 04:59:00,SystemResetWarning,0826.5,5.00,000.00,018.6,017.7,000.0,027.2,020.3,23.2,0000.0,0008.42,0005.88,0005.73
